User: anonymous   Login
Location: Caltech
(34.1382°N, 118.1253°W)
Time: 07:14:31
(UTC-07:00)
Language:

ERBS - Orbit

View from above orbital plane
View from above orbital plane
View from above satellite
View from above satellite

Ground track
Ground track

The orbit data is extracted from the following two-line orbital elements,

1 15354U 84108B   16177.13922663  .00002208  00000-0  62047-4 0  9998
2 15354  57.0081 232.5902 0015331 128.5209 231.7222 15.40975055743110
Epoch (UTC): 25 June 2016 03:20:29
Eccentricity: 0.0015331
inclination: 57.0081°
perigee height: 433 km
apogee height: 453 km
right ascension of ascending node: 232.5902°
argument of perigee: 128.5209°
revolutions per day: 15.40975055
mean anomaly at epoch: 231.7222°
orbit number at epoch: 74311

The dashed part of the orbit path shows where the satellite is in the earth's shadow,  

DLR